Location: Mohawk View
(42.7837°N, 73.7885°W)
Time: 05:57:30
(UTC+00:00)

Cosmos 2266 Rocket - Pass Details

Date: 17 June 2021
Orbit: 935 x 1007 km, 82.9° (Epoch: 03 August)

Event Time Altitude Azimuth Distance (km) Brightness Sun altitude
Exits shadow 08:34:24 - 197° (SSW) 3,372 6.3 -6.9°
Reaches altitude 10° 08:36:14 10° 200° (SSW) 2,686 5.8 -6.7°
Maximum altitude 08:42:17 62° 280° (W) 1,065 4.1 -5.8°
Drops below altitude 10° 08:48:19 10° 1° (N) 2,664 6.9 -5.0°
Sets 08:50:50 0° 5° (N) 3,608 7.7 -4.6°
